Вернуться в каталог

STARLINK-4080

АктивенСвязьVLEO
NORAD 52835·PAYLOAD·🇺🇸 United States

Запущен Jun 17, 2022 с Cape Canaveral Space Force Station

Loading…

Ближайшие Пролёты (ближайшие 24 часа)

TLE

СвежийSource: CelesTrak SupGP

Эпоха: Sep 15, 2026, 01:17 UTC

1 52835C 22062F   26258.05395833 -.00038996  00000+0 -12536-2 0  2587
2 52835  53.1585 254.1688 0001293  91.2152 238.3542 15.31731231    16

Отслеживайте STARLINK-4080 в реальном времени с AllMySat

Download on the App Store